Location: Lecco
(45.8566°N, 9.3977°E)
Time: 09:08:51
(UTC+01:00)

ISS - Visible Passes

Search period start: 24 February 2018 00:00
Search period end: 06 March 2018 00:00
Orbit: 402 x 407 km, 51.6° (Epoch: 24 February)

Date Brightness Start Highest point End Pass type
(mag) Time Alt. Az. Time Alt. Az. Time Alt. Az.
24 Feb -0.2 06:34:13 10° SE 06:34:37 10° SE 06:35:01 10° SE visible
26 Feb -1.3 06:23:45 10° S 06:26:20 22° SE 06:28:56 10° E visible
27 Feb -0.9 05:32:49 10° SSE 05:34:20 13° SE 05:35:51 10° ESE visible
28 Feb -2.8 06:15:00 10° SW 06:18:08 46° SE 06:21:18 10° ENE visible
01 Mar -1.9 05:24:11 16° S 05:26:00 26° SE 05:28:49 10° E visible
02 Mar -1.1 04:34:22 15° SE 04:34:22 15° SE 04:35:58 10° E visible
02 Mar -3.9 06:07:02 12° WSW 06:10:01 86° NNW 06:13:18 10° ENE visible
03 Mar -3.4 05:17:04 44° SSW 05:17:46 56° SE 05:21:00 10° ENE visible
04 Mar -1.4 04:26:59 22° E 04:26:59 22° E 04:28:32 10° ENE visible
04 Mar -3.4 05:59:38 17° W 06:01:57 49° NNW 06:05:10 10° ENE visible
05 Mar -4.0 05:09:28 72° NW 05:09:35 74° NNW 05:12:52 10° ENE visible
